Tiempo cada hora Dachnoe

Hoy, 30 Noviembre, Lunes

Tiempo Temperatura Precipitaciones Viento Presión Humedad
00:00 +1°C° 0.2 mm 3 mps 759 mmHg 97%
01:00 +1°C° 0.2 mm 3 mps 759 mmHg 97%
02:00 +1°C° 0 mm 3 mps 759 mmHg 96%
03:00 +1°C° 0.1 mm 3 mps 759 mmHg 95%
04:00 +1°C° 0.1 mm 3 mps 759 mmHg 95%
05:00 +1°C° 0.1 mm 3 mps 759 mmHg 94%
06:00 0°C° 0 mm 3 mps 759 mmHg 92%
07:00 -1°C° 0 mm 3 mps 759 mmHg 90%
08:00 -2°C° 0 mm 2 mps 759 mmHg 88%
09:00 -1°C° 0 mm 2 mps 759 mmHg 86%
10:00 -1°C° 0 mm 3 mps 759 mmHg 83%
11:00 -1°C° 0 mm 3 mps 759 mmHg 81%
12:00 -1°C° 0 mm 3 mps 759 mmHg 81%
13:00 -1°C° 0 mm 3 mps 759 mmHg 81%
14:00 -1°C° 0 mm 3 mps 759 mmHg 82%
15:00 -1°C° 0 mm 3 mps 759 mmHg 81%
16:00 -1°C° 0 mm 3 mps 759 mmHg 79%
17:00 -2°C° 0 mm 3 mps 759 mmHg 78%
18:00 -2°C° 0 mm 3 mps 759 mmHg 80%
19:00 -2°C° 0 mm 3 mps 759 mmHg 82%
20:00 -2°C° 0 mm 3 mps 759 mmHg 83%
21:00 -3°C° 0 mm 4 mps 759 mmHg 83%
22:00 -3°C° 0 mm 4 mps 759 mmHg 83%
23:00 -3°C° 0 mm 4 mps 759 mmHg 83%

Mañana, 1 Diciembre, Martes

Tiempo Temperatura Precipitaciones Viento Presión Humedad
00:00 -3°C° 0 mm 4 mps 759 mmHg 83%
01:00 -3°C° 0 mm 4 mps 759 mmHg 82%
02:00 -3°C° 0 mm 4 mps 760 mmHg 82%
03:00 -3°C° 0 mm 4 mps 760 mmHg 81%
04:00 -3°C° 0 mm 4 mps 760 mmHg 80%
05:00 -3°C° 0 mm 4 mps 760 mmHg 79%
06:00 -3°C° 0 mm 4 mps 761 mmHg 81%
07:00 -3°C° 0 mm 4 mps 761 mmHg 84%
08:00 -4°C° 0 mm 3 mps 762 mmHg 86%
09:00 -2°C° 0 mm 3 mps 762 mmHg 84%
10:00 -2°C° 0 mm 3 mps 762 mmHg 82%
11:00 -1°C° 0 mm 3 mps 762 mmHg 80%
12:00 -1°C° 0 mm 3 mps 763 mmHg 80%
13:00 -1°C° 0 mm 3 mps 763 mmHg 79%
14:00 -1°C° 0 mm 3 mps 764 mmHg 79%
15:00 -2°C° 0 mm 3 mps 764 mmHg 81%
16:00 -2°C° 0 mm 3 mps 764 mmHg 83%
17:00 -2°C° 0 mm 3 mps 764 mmHg 85%
18:00 -2°C° 0 mm 3 mps 764 mmHg 85%
19:00 -2°C° 0 mm 3 mps 765 mmHg 84%
20:00 -2°C° 0 mm 3 mps 765 mmHg 84%
21:00 -2°C° 0 mm 3 mps 765 mmHg 83%
22:00 -2°C° 0 mm 3 mps 766 mmHg 82%
23:00 -2°C° 0 mm 3 mps 766 mmHg 81%

Pasado mañana, 2 Diciembre, Miércoles

Tiempo Temperatura Precipitaciones Viento Presión Humedad
00:00 -2°C° 0 mm 3 mps 766 mmHg 82%
01:00 -2°C° 0 mm 2 mps 766 mmHg 83%
02:00 -2°C° 0 mm 2 mps 767 mmHg 84%
03:00 -3°C° 0 mm 2 mps 766 mmHg 84%
04:00 -3°C° 0 mm 2 mps 766 mmHg 85%
05:00 -3°C° 0 mm 2 mps 766 mmHg 86%
06:00 -3°C° 0 mm 2 mps 766 mmHg 85%
07:00 -3°C° 0 mm 2 mps 766 mmHg 84%
08:00 -3°C° 0 mm 2 mps 767 mmHg 84%
09:00 -3°C° 0 mm 2 mps 767 mmHg 82%
10:00 -3°C° 0 mm 2 mps 767 mmHg 80%
11:00 -3°C° 0 mm 2 mps 767 mmHg 78%
12:00 -3°C° 0 mm 2 mps 767 mmHg 77%
13:00 -3°C° 0 mm 2 mps 767 mmHg 77%
14:00 0°C° 0 mm 1 mps 766 mmHg 76%
15:00 -1°C° 0 mm 1 mps 766 mmHg 79%
16:00 -1°C° 0 mm 1 mps 766 mmHg 82%
17:00 -2°C° 0 mm 1 mps 766 mmHg 85%
18:00 -2°C° 0 mm 1 mps 766 mmHg 84%
19:00 -2°C° 0 mm 1 mps 766 mmHg 84%
20:00 -4°C° 0 mm 2 mps 765 mmHg 84%
21:00 -4°C° 0 mm 2 mps 765 mmHg 84%
22:00 -4°C° 0 mm 2 mps 765 mmHg 85%
23:00 -4°C° 0 mm 2 mps 765 mmHg 85%

3 Diciembre, Jueves

Tiempo Temperatura Precipitaciones Viento Presión Humedad
00:00 -4°C° 0 mm 2 mps 765 mmHg 87%
01:00 -4°C° 0 mm 2 mps 764 mmHg 89%
02:00 -4°C° 0 mm 2 mps 764 mmHg 91%
03:00 -4°C° 0 mm 2 mps 764 mmHg 92%
04:00 -4°C° 0 mm 2 mps 763 mmHg 92%
05:00 -4°C° 0 mm 2 mps 763 mmHg 92%
06:00 -4°C° 0 mm 2 mps 763 mmHg 91%
07:00 -5°C° 0 mm 2 mps 763 mmHg 89%
08:00 -5°C° 0 mm 2 mps 763 mmHg 88%
09:00 -5°C° 0 mm 2 mps 762 mmHg 86%
10:00 -5°C° 0 mm 3 mps 762 mmHg 83%
11:00 -5°C° 0 mm 3 mps 762 mmHg 81%
12:00 -5°C° 0 mm 3 mps 762 mmHg 81%
13:00 -5°C° 0 mm 3 mps 762 mmHg 81%
14:00 -5°C° 0 mm 3 mps 761 mmHg 80%
15:00 -5°C° 0 mm 3 mps 761 mmHg 81%
16:00 -5°C° 0 mm 3 mps 761 mmHg 82%
17:00 -5°C° 0 mm 3 mps 761 mmHg 82%
18:00 -5°C° 0 mm 3 mps 761 mmHg 82%
19:00 -5°C° 0 mm 3 mps 761 mmHg 81%
20:00 -5°C° 0 mm 3 mps 761 mmHg 81%
21:00 -4°C° 0 mm 3 mps 761 mmHg 81%
22:00 -4°C° 0 mm 3 mps 761 mmHg 81%
23:00 -4°C° 0 mm 3 mps 761 mmHg 82%

4 Diciembre, Viernes

Tiempo Temperatura Precipitaciones Viento Presión Humedad
00:00 -4°C° 0 mm 3 mps 761 mmHg 81%
01:00 -4°C° 0 mm 3 mps 761 mmHg 81%
02:00 -4°C° 0 mm 3 mps 761 mmHg 81%
03:00 -4°C° 0 mm 3 mps 761 mmHg 82%
04:00 -4°C° 0 mm 3 mps 761 mmHg 82%
05:00 -4°C° 0 mm 3 mps 761 mmHg 83%
06:00 -4°C° 0 mm 3 mps 761 mmHg 84%
07:00 -4°C° 0 mm 3 mps 761 mmHg 85%
08:00 -5°C° 0 mm 3 mps 761 mmHg 85%
09:00 -4°C° 0 mm 4 mps 761 mmHg 85%
10:00 -4°C° 0 mm 4 mps 761 mmHg 84%
11:00 -4°C° 0 mm 4 mps 761 mmHg 83%
12:00 -4°C° 0 mm 4 mps 761 mmHg 83%
13:00 -2°C° 0 mm 3 mps 761 mmHg 83%
14:00 -2°C° 0 mm 3 mps 761 mmHg 83%
15:00 -2°C° 0 mm 3 mps 760 mmHg 84%
16:00 -2°C° 0 mm 3 mps 760 mmHg 85%
17:00 -2°C° 0 mm 3 mps 760 mmHg 85%
18:00 -2°C° 0 mm 3 mps 760 mmHg 86%
19:00 -2°C° 0 mm 3 mps 760 mmHg 86%
20:00 -3°C° 0 mm 4 mps 760 mmHg 86%
21:00 -3°C° 0 mm 4 mps 760 mmHg 86%
22:00 -2°C° 0 mm 4 mps 760 mmHg 85%
23:00 -2°C° 0 mm 4 mps 760 mmHg 85%

5 Diciembre, Sábado

Tiempo Temperatura Precipitaciones Viento Presión Humedad
00:00 -2°C° 0 mm 4 mps 760 mmHg 85%
01:00 -2°C° 0 mm 4 mps 760 mmHg 84%
02:00 -2°C° 0 mm 4 mps 760 mmHg 84%
03:00 -2°C° 0 mm 4 mps 760 mmHg 85%
04:00 -2°C° 0 mm 4 mps 760 mmHg 85%
05:00 -2°C° 0 mm 4 mps 760 mmHg 86%
06:00 -2°C° 0 mm 4 mps 760 mmHg 86%
07:00 -3°C° 0 mm 4 mps 760 mmHg 86%
08:00 -3°C° 0 mm 4 mps 760 mmHg 86%
09:00 -2°C° 0 mm 4 mps 760 mmHg 84%
10:00 -2°C° 0 mm 4 mps 760 mmHg 83%
11:00 -2°C° 0 mm 4 mps 760 mmHg 81%
12:00 -2°C° 0 mm 4 mps 760 mmHg 81%
13:00 -2°C° 0 mm 4 mps 760 mmHg 81%
14:00 -2°C° 0 mm 4 mps 760 mmHg 80%
15:00 -2°C° 0 mm 4 mps 760 mmHg 81%
16:00 -2°C° 0 mm 4 mps 760 mmHg 82%
17:00 -1°C° 0 mm 3 mps 760 mmHg 83%
18:00 -1°C° 0 mm 3 mps 760 mmHg 83%
19:00 -1°C° 0 mm 3 mps 760 mmHg 84%
20:00 -1°C° 0 mm 3 mps 760 mmHg 84%
21:00 -1°C° 0 mm 3 mps 760 mmHg 84%
22:00 -2°C° 0 mm 4 mps 760 mmHg 85%
23:00 -2°C° 0 mm 4 mps 760 mmHg 85%
Mostrar más

Necesitamos Su Consentimiento

Meteoprog y nuestros Proveedores de Servicios pueden almacenar y acceder a sus datos personales como cookies, identificadores de dispositivo u otras tecnologías similares de su dispositivo y procesar dichos datos para personalizar contenido y anuncios, además de ofrecer funciones de redes sociales y analizar el tráfico.

  • Almacenar y/o acceder a información en su dispositivo

    Se puede almacenar o acceder a cookies, identificadores de dispositivo u otra información de su dispositivo para los fines anteriormente indicados.

  • Anuncios y contenido personalizados, medición de anuncios y contenido, percepciones del público, y desarrollo de productos

    Los anuncios y el contenido pueden personalizarse en base a su perfil. Se pueden añadir más datos para personalizar mejor los anuncios y contenidos. Se puede medir el rendimiento de los anuncios y contenidos. Se puede obtener la percepción sobre el público que ha visto los anuncios y contenidos. Dichos datos pueden usarse para desarrollar o mejorar la experiencia del usuario, sistemas y software.

Al hacer clic en ‘Estoy De Acuerdo’ usted permitirá el uso de las cookies, identificadores de dispositivo, balizas web u otras tecnologías similares indicadas. Su configuración puede cambiarse desde el navegador de su dispositivo.

Para ciertos fines, los intereses legítimos pueden ser considerados por encima del consentimiento. Puede leer más sobre ello en nuestra Política de Privacidad y Cookies.